Terug naar catalogus

COSMOS 2169

ActiefCommunicatiePO
NORAD 21783·PAYLOAD·🇷🇺 Russia

Gelanceerd Nov 12, 1991 vanaf Plesetsk Cosmodrome

Loading…

Volgende Passages (komende 24 uur)

TLE

VersSource: Space-Track

Epoch: Sep 14, 2026, 09:46 UTC

1 21783U 91077E   26257.40741933  .00000042  00000-0  16432-3 0  9993
2 21783  82.6062 151.3433 0018394 124.2557 236.0282 12.66317419610086

Volg COSMOS 2169 in realtime met AllMySat

Download on the App Store